[[{"header":{"parameterUnit":"m.s-1","parameterCategory":1,"la1":30.2991,"la2":30.254,"lo1":-89.0895,"lo2":-89.0444,"dy":0.0017,"dx":0.0017,"nx":28,"ny":28,"refTime":"2024-09-27T21:00:00:Z","depth":0,"parameterNumber":2,"parameterNumberName":"U-component_of_WINDS"},"data":[0,0,0,0,0,0,0,0,0,0,0,0,0,0,0,0,0,0,0,0,0,0,0,0,0,0,0,0,0,0,0,0,0,0,0,0,0,0,0,0,0,0,0,0,0,0,0,0,0,0,0,0,0,0,0,0,0,0,6.0607,6.0609,0,6.0841,6.0843,6.0846,6.0794,6.0789,6.0785,6.0781,6.1023,6.1033,6.1043,0,0,0,0,0,0,0,0,0,0,0,0,0,6.0115,6.0124,6.0607,6.061,6.0613,6.084,6.0843,6.0847,6.0794,6.0789,6.0784,6.0779,6.1019,6.1032,6.1044,0,0,0,0,0,0,0,0,0,0,0,0,0,6.0337,6.0127,6.0606,6.0614,6.0617,6.084,6.0844,6.0848,6.0796,6.0789,6.0782,6.0776,6.1015,6.103,6.1046,6.1276,0,0,6.1095,6.1101,0,0,0,0,0,0,0,0,6.0324,6.0355,6.061,6.0614,6.0618,6.0781,6.0759,6.0991,6.0797,6.0728,6.0781,6.0773,6.0948,6.0969,6.1027,6.1288,6.1298,6.1096,6.1106,6.1112,6.1117,0,0,0,0,0,0,0,6.0309,6.0345,6.0699,6.0614,6.0618,6.0606,6.063,6.0803,6.0872,6.0733,6.073,6.0758,6.0949,6.1012,6.1033,6.1302,6.1095,6.111,6.1119,6.1125,6.1759,6.1766,0,0,0,0,0,0,6.029,6.0332,6.0692,6.0706,6.0451,6.062,6.0647,6.0735,6.087,6.0884,6.0764,6.0755,6.0988,6.1014,6.1041,6.1316,6.1112,6.1127,6.1136,6.1752,6.1761,6.1768,0,0,0,0,0,0,6.028,6.0323,6.0682,6.0518,6.0563,6.0635,6.0735,6.0744,6.0807,6.0893,6.0905,6.0816,6.0984,6.1019,6.1217,6.1324,6.1134,6.1149,6.1743,6.1754,6.1765,6.1871,0,0,0,0,0,0,6.0266,6.0319,6.0408,6.0521,6.0572,6.0855,6.0742,6.0753,6.0834,6.0825,6.0945,6.0959,6.0982,6.1194,6.1233,6.1342,6.1161,6.1734,6.1748,6.1761,6.1858,6.1884,6.1906,0,0,0,0,0,6.0249,6.043,6.0412,6.0456,6.0684,6.0861,6.0891,6.0913,6.0843,6.0932,6.0987,6.0955,6.1307,6.1215,6.1258,6.1374,6.1727,6.1744,6.176,6.1847,6.1879,6.1906,0,0,0,0,0,0,6.0329,6.0445,6.0427,6.065,6.0746,6.0852,6.0965,6.0946,6.1065,6.1051,6.1074,6.1102,6.1303,6.1359,6.1255,6.1602,6.1507,6.1533,6.1558,6.1589,6.1613,6.1594,6.1174,0,0,0,0,0,6.0372,6.0506,6.06,6.0788,6.0837,6.0893,6.0971,6.0979,6.108,6.1121,6.119,6.129,6.1422,6.1509,6.1636,6.1866,6.189,6.1967,6.1991,6.2011,6.2032,6.2155,6.2189,6.1823,6.1823,6.1822,0,0,6.0464,6.0544,6.0627,6.0806,6.0882,6.1019,6.0928,6.1078,6.118,6.1144,6.1334,6.1389,6.1501,6.1716,6.1814,6.1768,6.2139,6.2032,6.2047,6.2058,6.2175,6.221,6.2241,6.1834,6.1832,6.183,0,0,6.07,6.0775,6.0938,6.1014,6.1129,6.1165,6.1204,6.1313,6.1347,6.1538,6.1513,6.1635,6.1864,6.1944,6.2014,6.2278,6.2252,6.2319,6.2445,6.2564,6.2592,6.2618,6.2709,6.2742,6.2341,6.2341,6.2341,0,6.0799,6.1005,6.1024,6.1176,6.1254,6.1227,6.1391,6.1465,6.1616,6.167,6.1617,6.1901,6.1975,6.2206,6.227,6.2329,6.2373,6.2305,6.2587,6.2613,6.2637,6.2724,6.2758,6.2348,6.2348,6.2347,6.2346,0,6.1119,6.1263,6.138,6.1524,6.1616,6.1774,6.1816,6.1907,6.1907,6.1948,6.2142,6.223,6.2372,6.2428,6.2431,6.2659,6.2627,6.2581,6.2485,6.2678,6.276,6.2794,6.2359,6.2356,6.2354,6.2352,0,0,6.1413,6.1563,6.1606,6.1669,6.1793,6.1904,6.2059,6.2197,6.2273,6.2378,6.2508,6.2701,6.2657,6.2737,6.2749,6.2854,6.3053,6.2794,6.2797,6.2836,6.3306,6.3338,6.3376,6.3037,6.3044,6.3049,6.3295,0,6.1657,6.193,6.195,6.2196,6.2327,6.2302,6.2437,6.2527,6.2569,6.2686,6.2733,6.2868,6.2803,6.285,6.2953,6.3007,6.3147,6.299,6.3156,6.3162,6.3126,6.342,6.3455,6.3683,6.3328,6.3333,6.3337,0,6.1979,6.2091,6.2349,6.245,6.2506,6.2627,6.2753,6.2867,6.2968,6.2991,6.3079,6.3075,6.3234,6.3134,6.3351,6.3244,6.3313,6.335,6.3359,6.3373,6.3259,6.3439,6.3757,6.3789,6.3389,6.3385,6.3381,0,6.2162,6.2378,6.2559,6.2615,6.2739,6.2824,6.288,6.2975,6.3055,6.3166,6.3218,6.3347,6.3417,6.3517,6.3547,6.3472,6.3763,6.3666,6.3785,6.3784,6.3846,6.3841,6.4176,6.3896,6.3895,6.3895,6.3894,0,6.2432,6.259,6.2642,6.2754,6.2929,6.2952,6.3125,6.3176,6.326,6.338,6.3368,6.3481,6.3516,6.3635,6.366,6.3835,6.3868,6.3889,6.3894,6.3889,6.3886,6.3933,6.3917,6.3904,6.3902,6.39,6.3898,0,6.2666,6.2708,6.2903,6.3004,6.3033,6.3158,6.3244,6.335,6.339,6.3542,6.3579,6.3641,6.3781,6.3821,6.399,6.4006,6.421,6.4202,6.4175,6.4174,6.4289,6.4277,6.4664,6.4715,6.4404,6.4407,6.441,0,6.2833,6.2954,6.3067,6.3145,6.3204,6.3332,6.3413,6.344,6.3525,6.3648,6.3739,6.3876,6.3987,6.421,6.427,6.4398,6.4391,6.4518,6.441,6.44,6.4389,6.438,6.439,6.4537,6.4541,6.4543,6.4545,0,6.3125,6.3139,6.3256,6.3381,6.3477,6.3577,6.3673,6.3738,6.3778,6.3875,6.4016,6.4101,6.4271,6.4407,6.4536,6.4593,6.4576,6.4579,6.4613,6.4607,6.4586,6.4595,6.4227,6.457,6.4567,6.4565,6.4564,6.4563,6.3329,6.3433,6.3528,6.3658,6.3732,6.3821,6.3925,6.3977,6.4095,6.4234,6.4243,6.4395,6.4491,6.4662,6.4726,6.4845,6.4807,6.4857,6.4869,6.488,6.4888,6.4569,6.4869,6.4868,6.4868,6.4867,6.4867,0,6.3616,6.3676,6.3795,6.3928,6.403,6.4004,6.4108,6.4195,6.4329,6.4419,6.4527,6.4688,6.4819,6.4889,6.5019,6.51,6.5095,6.5133,6.5126,6.5138,6.4916,6.4872,6.5134,6.5134,6.5134,6.5134,6.5134,6.5134,6.3778,6.3952,6.3977,6.4187,6.4246,6.4393,6.4454,6.4536,6.4607,6.4787,6.4894,6.4939,6.5021,6.5156,6.5274,6.5291,6.5338,6.538,6.5392,6.5182,6.5155,6.5129,6.5087,6.5391,6.5391,6.5605,6.5607,6.5608]},{"header":{"parameterUnit":"m.s-1","parameterCategory":1,"la1":30.2991,"la2":30.254,"lo1":-89.0895,"lo2":-89.0444,"dy":0.0017,"dx":0.0017,"nx":28,"ny":28,"refTime":"2024-09-27T21:00:00:Z","depth":0,"parameterNumber":3,"parameterNumberName":"V-component_of_WINDS"},"data":[0,0,0,0,0,0,0,0,0,0,0,0,0,0,0,0,0,0,0,0,0,0,0,0,0,0,0,0,0,0,0,0,0,0,0,0,0,0,0,0,0,0,0,0,0,0,0,0,0,0,0,0,0,0,0,0,0,0,2.8079,2.8079,0,2.8131,2.8132,2.8132,2.8101,2.81,2.8098,2.8097,2.8149,2.8151,2.8154,0,0,0,0,0,0,0,0,0,0,0,0,0,2.7948,2.7951,2.8078,2.8079,2.808,2.8131,2.8132,2.8132,2.8101,2.81,2.8098,2.8096,2.8148,2.8151,2.8154,0,0,0,0,0,0,0,0,0,0,0,0,0,2.8003,2.7952,2.8078,2.8071,2.807,2.8131,2.8132,2.8132,2.8102,2.81,2.8097,2.8095,2.8147,2.8151,2.8155,2.8225,0,0,2.8167,2.8169,0,0,0,0,0,0,0,0,2.8,2.8008,2.8071,2.8071,2.8071,2.8107,2.8105,2.8163,2.8102,2.809,2.8097,2.8094,2.8137,2.8141,2.8156,2.8228,2.823,2.8168,2.817,2.8172,2.8173,0,0,0,0,0,0,0,2.7996,2.8006,2.8099,2.8072,2.8072,2.8063,2.8069,2.8116,2.8125,2.8091,2.8089,2.8095,2.8136,2.8152,2.8157,2.8231,2.8168,2.8171,2.8174,2.8176,2.8359,2.8362,0,0,0,0,0,0,2.7993,2.8003,2.8097,2.8101,2.8029,2.8068,2.8074,2.8098,2.8124,2.8126,2.8097,2.8094,2.8146,2.8152,2.8159,2.8241,2.8172,2.8176,2.8178,2.8357,2.836,2.8362,0,0,0,0,0,0,2.7991,2.8002,2.8095,2.8051,2.8062,2.8072,2.81,2.81,2.8116,2.8129,2.8131,2.8112,2.8145,2.8153,2.8208,2.8243,2.8178,2.8182,2.8354,2.8358,2.8361,2.8408,0,0,0,0,0,0,2.7987,2.8002,2.8029,2.8052,2.8065,2.8145,2.8102,2.8103,2.8124,2.812,2.8144,2.8145,2.8144,2.8202,2.8212,2.8247,2.8185,2.8351,2.8356,2.836,2.8403,2.8412,2.842,0,0,0,0,0,2.7983,2.804,2.8031,2.8043,2.81,2.8147,2.8155,2.8152,2.8127,2.8154,2.8162,2.8145,2.8237,2.8208,2.8219,2.8256,2.8349,2.8354,2.836,2.8399,2.841,2.842,0,0,0,0,0,0,2.8022,2.8043,2.8033,2.81,2.8122,2.8142,2.8177,2.8164,2.8194,2.8188,2.8183,2.8189,2.8246,2.8256,2.8224,2.8324,2.8289,2.8297,2.8315,2.8326,2.8334,2.833,2.8188,0,0,0,0,0,2.8038,2.8076,2.8092,2.815,2.8161,2.8167,2.8188,2.8183,2.8206,2.8215,2.8227,2.8249,2.8282,2.8305,2.8337,2.8404,2.8408,2.8434,2.8443,2.845,2.8457,2.8491,2.8502,2.838,2.838,2.838,0,0,2.8072,2.8089,2.8113,2.8158,2.8174,2.8212,2.8175,2.8217,2.8245,2.8221,2.8274,2.8283,2.8307,2.8368,2.8396,2.8379,2.8491,2.8457,2.8462,2.8465,2.8498,2.8509,2.852,2.8384,2.8383,2.8383,0,0,2.8154,2.8171,2.8219,2.8236,2.8262,2.8265,2.8277,2.8298,2.8304,2.8357,2.8339,2.8371,2.843,2.8447,2.8463,2.8548,2.8533,2.8559,2.8604,2.8637,2.8647,2.8655,2.8684,2.8694,2.8565,2.8566,2.8566,0,2.8193,2.825,2.8246,2.8289,2.8308,2.8288,2.8336,2.8353,2.8387,2.8401,2.8381,2.8453,2.8468,2.8531,2.8552,2.8566,2.8578,2.8556,2.8646,2.8654,2.8662,2.8689,2.87,2.8568,2.8568,2.8568,2.8568,0,2.8296,2.8335,2.8372,2.8405,2.8428,2.8474,2.8475,2.8499,2.8492,2.8497,2.855,2.8567,2.86,2.8615,2.8609,2.8678,2.8666,2.8646,2.8611,2.8677,2.8702,2.8713,2.8573,2.8572,2.8571,2.857,0,0,2.8404,2.8434,2.8447,2.8461,2.8486,2.8516,2.856,2.8593,2.8613,2.8637,2.8672,2.8721,2.8702,2.8721,2.8716,2.8746,2.881,2.8722,2.8722,2.8736,2.8884,2.8898,2.891,2.88,2.8802,2.8803,2.8881,0,2.8486,2.8563,2.8559,2.8631,2.8666,2.8646,2.8684,2.8703,2.8708,2.8738,2.8743,2.8777,2.8751,2.8761,2.879,2.8796,2.8839,2.879,2.8831,2.8833,2.8825,2.8924,2.894,2.9013,2.8892,2.8893,2.8895,0,2.8592,2.8619,2.8694,2.8712,2.8727,2.8761,2.879,2.8819,2.8839,2.8841,2.886,2.885,2.8893,2.8856,2.8913,2.888,2.8896,2.8902,2.8905,2.8908,2.8867,2.8929,2.9036,2.9046,2.8911,2.8909,2.8908,0,2.8662,2.8717,2.8768,2.8781,2.8804,2.8828,2.8838,2.8857,2.8876,2.8901,2.8913,2.8943,2.8959,2.8981,2.8979,2.8953,2.9036,2.9,2.9037,2.9037,2.9055,2.9054,2.9166,2.9068,2.9067,2.9067,2.9067,0,2.8753,2.8799,2.8799,2.8831,2.8881,2.8876,2.8925,2.8933,2.8949,2.8981,2.8966,2.8995,2.8991,2.902,2.9018,2.9064,2.9072,2.9073,2.9072,2.9074,2.9074,2.9084,2.9079,2.907,2.9069,2.9069,2.9068,0,2.884,2.8842,2.8896,2.8913,2.8918,2.8954,2.8968,2.8997,2.9,2.904,2.9049,2.9054,2.9087,2.9087,2.9125,2.9124,2.918,2.9174,2.9173,2.9172,2.9208,2.9204,2.9329,2.9345,2.9238,2.9239,2.924,0,2.8897,2.8932,2.8952,2.8972,2.8984,2.9017,2.9037,2.9032,2.9053,2.9077,2.9103,2.9135,2.916,2.9214,2.922,2.9249,2.9242,2.9284,2.9246,2.9246,2.9241,2.9238,2.9241,2.9291,2.9292,2.9293,2.9294,0,2.8999,2.8998,2.9027,2.9056,2.9079,2.9102,2.9123,2.914,2.9137,2.9161,2.9195,2.9215,2.9253,2.9284,2.9311,2.9321,2.9306,2.9306,2.9316,2.9318,2.9315,2.9315,2.9192,2.9303,2.9302,2.9301,2.9301,2.9301,2.9072,2.9101,2.9119,2.9151,2.9166,2.9185,2.9213,2.9219,2.9247,2.9278,2.9274,2.9311,2.9328,2.9363,2.9375,2.9403,2.9388,2.9403,2.9406,2.941,2.9413,2.9312,2.9408,2.9408,2.9408,2.9407,2.9407,0,2.9171,2.9182,2.9211,2.924,2.9265,2.925,2.9271,2.9293,2.9326,2.9343,2.9368,2.9406,2.9436,2.9444,2.9472,2.9493,2.9487,2.95,2.9498,2.95,2.9425,2.9414,2.9505,2.9505,2.9505,2.9505,2.9504,2.9504,2.9226,2.9274,2.9274,2.9329,2.9338,2.9375,2.9388,2.9405,2.9419,2.9462,2.9487,2.9492,2.9505,2.9533,2.9559,2.9561,2.9571,2.9587,2.9586,2.9516,2.9506,2.9496,2.9485,2.959,2.959,2.9658,2.9658,2.9659]}]]